Regional Weather Roundup
Issued by NWS

Home | Current Version | Previous Version | Graphics & Text | Print | Product List | Glossary On
Versions: 1 2 3 4 5 6 7 8 9 10 11 12 13 14 15 16 17 18 19 20 21 22 23 24 25 26 27 28 29 30 31 32 33 34 35 36 37 38 39 40 41 42 43 44 45 46 47 48 49 50
000
ASUS43 KDMX 231107
RWRIA

WEATHER ROUNDUP FOR IOWA
NATIONAL WEATHER SERVICE DES MOINES IA
600 AM CDT SAT AUG 23 2014

NOTE: "FAIR" INDICATES FEW OR NO CLOUDS BELOW 12,000 FEET WITH NO
SIGNIFICANT WEATHER AND/OR OBSTRUCTIONS TO VISIBILITY.

* - THESE STATIONS ARE NOT NWS STATIONS...THUS NOT UNDER NWS
QUALITY CONTROL.  THEY ALSO DO NOT REPORT WEATHER SUCH
AS PRECIPITATION OR FOG.

IAZ001>003-012>014-020>022-031>034-043>046-231200-
   NORTHWEST IOWA

CITY           SKY/WX    TMP DP  RH WIND       PRES   REMARKS
CARROLL *      LGT RAIN  70  68  94 NW13      29.92F
CHEROKEE *     LGT RAIN  68  68 100 NE3       29.93F
DENISON *      RAIN      70  70 100 N5        29.93F
LE MARS *      PTCLDY    68  68 100 NE9       29.87F
ORANGE CITY *  DRIZZLE   70  66  88 E8        29.89F
SHELDON *      RAIN      68  68 100 NE12      29.91F
SIOUX CITY     CLOUDY    73  68  84 E16       29.86F
SPENCER        LGT RAIN  70  68  93 NW12      29.95F
STORM LAKE *   LGT RAIN  68  68 100 N9        29.95F
$$

IAZ055>058-069>071-079>083-090>094-231200-
   SOUTHWEST IOWA

CITY           SKY/WX    TMP DP  RH WIND       PRES   REMARKS
ATLANTIC *     CLOUDY    72  70  94 N10       29.89F
AUDUBON *      LGT RAIN  73  72  94 N13       29.92S
CLARINDA *     MOCLDY    72  72 100 N5        29.93R
COUNCIL BLFS * MOCLDY    70  70 100 N6        29.89F
CRESTON *      CLOUDY    72  72 100 E7        29.94R
HARLAN  *      PTCLDY    70  70 100 N12G20    29.92F
LAMONI         LGT RAIN  73  71  93 N18G30    29.92R
RED OAK *      CLOUDY    72  70  94 CALM      29.92R
SHENANDOAH *     N/A     72  70  94 CALM      29.92S
$$

IAZ047>049-059>061-072>074-084-231200-
   CENTRAL IOWA

CITY           SKY/WX    TMP DP  RH WIND       PRES   REMARKS
AMES           TSTM      73  71  93 SW16      29.96R
ANKENY *       HVY RAIN  72  72 100 W8        29.96R
CHARITON *     HVY RAIN  73  72  94 N14G21    29.92R
DES MOINES     TSTM      73  70  90 W15       29.96R
GRINNELL*      CLOUDY    72  68  88 E3        29.94R
KNOXVILLE *    DRIZZLE   73  72  94 S10       29.93R
MARSHALLTOWN   CLOUDY    71  69  93 SE3       29.94R
PELLA *        LGT RAIN  72  70  94 S8G22     29.93S
PERRY *        RAIN      70  70 100 CALM      29.95R
$$

IAZ004>006-015-016-023>025-035-036-231200-
   NORTH CENTRAL IOWA

CITY           SKY/WX    TMP DP  RH WIND       PRES   REMARKS
ALGONA *       CLOUDY    72  70  94 NE6       29.94F FOG
CLARION *      CLOUDY    72  72 100 E6        29.93F
ESTHERVILLE    TSTM      68  68 100 SW12      29.98R FOG
FORT DODGE *   CLOUDY    72  70  94 SE7       29.93F THUNDER
MASON CITY     CLOUDY    69  68  96 NE5       29.96F FOG
FOREST CITY *  CLEAR     70  70 100 E3        29.95S
IOWA FALLS *   CLOUDY    73  70  88 CALM      29.95R
$$

IAZ007>011-017>019-026>030-037>042-050>054-066-231200-
   NORTHEAST IOWA

CITY           SKY/WX    TMP DP  RH WIND       PRES   REMARKS
CEDAR RAPIDS   MOCLDY    74  74 100 CALM      29.94R FOG
CHARLES CITY * CLOUDY    72  70  94 NE8       29.94F FOG
CLINTON *      CLOUDY    75  73  94 SE5       29.97R
DECORAH *      FOG       70  70 100 CALM      29.96R VSB 1/4
DUBUQUE        CLOUDY    73  72  96 CALM      29.96R
MONTICELLO *   PTCLDY    75  75 100 E3        29.93S
OELWEIN *      PTCLDY    75  75 100 E3        29.95R FOG
WATERLOO       MOCLDY    73  72  96 NE3       29.91R FOG
$$

IAZ064-065-067-068-078-231200-
   EAST CENTRAL IOWA

CITY           SKY/WX    TMP DP  RH WIND       PRES   REMARKS
DAVENPORT      CLOUDY    74  73  97 SE5       29.95R FOG
IOWA CITY      MOCLDY    74  74 100 CALM      29.94R FOG
MT. PLEASANT * PTCLDY    75  73  94 SE5       29.92S FOG
MUSCATINE *    PTCLDY    73  72  94 NW6       29.94R FOG
QUAD CITIES    MOCLDY    75  73  93 CALM      29.94R
$$

IAZ062-063-075>077-085>089-095>099-231200-
   SOUTHEAST IOWA

CITY           SKY/WX    TMP DP  RH WIND       PRES   REMARKS
BURLINGTON     PTCLDY    74  74 100 SW3       29.92R FOG
FAIRFIELD *    PTCLDY    75  73  94 NW3       29.93R FOG
FORT MADISON * MOCLDY    75  75 100 CALM      29.93R FOG
KEOKUK *       CLOUDY    75  75 100 CALM      29.91R FOG
OSKALOOSA *    LGT RAIN  70  70 100 W9G20     29.96R
CENTERVILLE *  MOCLDY    75  75 100 NE10      29.94R
OTTUMWA        TSTM      74  72  93 W6        29.96R FOG
WASHINGTON *   MOCLDY    73  73 100 S3        29.93R FOG
$$

ABBREVIATIONS USED IN REMARKS
   TC - TEMPERATURES IN CELSIUS
  WCI - WIND CHILL INDEX
   HX - HEAT INDEX
  VSB - VISIBILITY
$$




USA.gov is the U.S. government's official web portal to all federal, state and local government web resources and services.